Location: Bullfrog
(37.5121°N, 110.7330°W)
Time: 13:14:29
(UTC-07:00)

Hubble Space Telescope - Pass Details

Date: 29 January 2026
Orbit: 478 x 480 km, 28.5° (Epoch: 5 February)

Event Time Altitude Azimuth Distance (km) Brightness Sun altitude
Rises 18:25:30 0° 249° (WSW) 2,509 6.6 -8.6°
Reaches altitude 10° 18:28:06 10° 232° (SW) 1,631 4.5 -9.1°
Maximum altitude 18:30:52 20° 184° (S) 1,151 2.7 -9.7°
Drops below altitude 10° 18:33:40 10° 136° (SE) 1,632 2.9 -10.2°
Enters shadow 18:35:01 - 125° (SE) 2,070 3.4 -10.4°
